Location: Newport
(44.6370°N, 124.0520°W)
Time: 00:55:43
(UTC-07:00)

OTV 5 (USA 277) - Pass Details

Date: 15 October 2017
Orbit: 404 x 417 km, 43.0° (Epoch: 07 September)

Event Time Altitude Azimuth Distance (km) Brightness Sun altitude
Rises 20:24:18 0° 270° (W) 2,355 ? -20.9°
Reaches altitude 10° 20:26:25 10° 267° (W) 1,492 ? -21.3°
Enters shadow 20:29:15 54° 233° (SW) 511 ? -21.8°
